Starlink 33813

operational
NORAD ID: 63585 Int'l Des: 2025-076 Owner: SPXS Country: US Constellation: starlink
LEOCIRCULAR

About Starlink 33813

Description loading...

Live Position

Loading 3D Globe...

Upcoming Passes

Altitude History

Altitude vs Time

uPlot chart will show altitude changes over time

Two-Line Element Set

1 63585U 25076S 26035.33133317 .00036795 00000-0 13395-2 0 9990
2 63585 42.9972 149.6495 0000793 247.8185 112.2582 15.27591182 46736
Epoch: Feb 4, 2026 • Age: 29 hours

Current Status

Altitude 486.0 km
Velocity 7.63 km/s
Sub-Earth Point 41.51°N, 73.32°W
Launch Date Apr 14, 2025
Age 0.8 years
Type internet

Technical Details

Classification Payload
Mass 575.00 kg
Dry Mass 530.00 kg
Total Mass 575.00 kg
Length 0.30 m
Diameter 4.10 m
Span 29.00 m
Shape Box + pan
Manufacturer SPXS
Bus Type Starlink V2MO
Phase Status In Orbit
Owner/State SPXS/US

Large Constellations

Loading constellations...